Date,TemperatureHighF,TemperatureAvgF,TemperatureLowF,DewpointHighF,DewpointAvgF,DewpointLowF,HumidityHigh,HumidityAvg,HumidityLow,PressureMaxIn,PressureMinIn,WindSpeedMaxMPH,WindSpeedAvgMPH,GustSpeedMaxMPH,PrecipitationSumIn
2013-4-1,68.9,54.9,45.3,58.2,50.6,44.5,99,87,56,30.16,30.06,4,0,5,0.00
2013-4-2,75.2,52.0,43.9,58.7,48.2,43.4,99,89,41,30.11,29.98,2,0,4,54.43
2013-4-3,85.6,61.0,44.6,57.7,48.7,43.8,99,70,29,30.08,29.92,3,0,4,0.00
2013-4-4,80.4,60.5,50.4,56.6,52.6,46.7,99,79,42,30.11,29.93,3,1,6,54.43
2013-4-5,77.9,60.6,51.4,57.6,53.2,51.2,99,80,43,30.10,29.93,3,0,4,12.09
2013-4-6,83.5,63.6,48.0,57.5,46.7,22.3,99,63,11,30.09,29.86,5,1,13,54.43
2013-4-7,72.3,63.9,52.9,49.2,44.0,30.3,69,50,24,29.94,29.74,3,1,6,0.00
2013-4-8,71.1,60.1,46.2,46.7,31.8,15.6,96,41,13,29.80,29.64,7,1,11,0.00
2013-4-9,80.4,64.8,55.4,27.3,20.1,8.0,32,21,10,29.99,29.79,5,1,11,0.00
2013-4-10,66.6,54.1,48.2,33.8,28.6,25.6,44,38,22,30.12,30.08,0,0,0,0.00
2013-4-12,83.1,66.9,50.9,53.4,50.9,48.5,92,60,35,29.86,29.72,3,1,5,0.00
2013-4-13,70.7,56.5,48.6,54.9,51.0,47.2,99,83,54,29.91,29.80,2,0,4,0.00
2013-4-14,57.6,54.8,52.0,56.7,52.5,50.9,99,92,85,29.86,29.80,2,0,3,0.01
2013-4-15,63.7,55.4,46.9,53.5,49.2,44.1,95,81,63,29.88,29.80,2,0,4,0.00
2013-4-16,72.9,56.3,38.5,44.5,23.2,2.9,96,41,10,30.01,29.85,8,1,13,0.00
2013-4-17,76.6,61.0,44.8,20.9,12.3,3.1,38,16,10,30.15,29.99,4,1,9,0.00
2013-4-18,82.9,61.5,44.2,30.5,16.8,7.1,42,20,10,30.22,30.10,5,1,8,0.00
2013-4-19,90.3,68.0,48.6,90.0,39.7,9.7,99,45,10,30.19,29.92,4,1,7,0.00
2013-4-20,96.4,73.4,55.2,43.3,31.4,18.7,51,25,10,30.00,29.80,5,1,8,0.00
2013-4-21,92.1,70.3,50.5,45.1,35.1,25.7,71,34,10,30.00,29.84,4,0,5,0.00
2013-4-22,81.0,60.7,44.8,53.9,48.3,42.6,99,69,26,30.01,29.82,4,1,5,0.00
2013-4-23,81.7,62.1,50.7,53.6,50.8,48.1,93,70,36,29.95,29.82,4,0,5,0.00
2013-4-24,63.9,55.8,51.3,55.6,52.3,49.3,96,88,68,29.98,29.89,2,0,4,0.00
2013-4-25,78.3,61.2,48.4,55.7,47.7,43.0,99,67,30,30.13,29.95,4,1,7,0.00
2013-4-26,84.7,63.4,45.1,56.6,48.3,42.7,98,64,29,30.15,30.03,4,0,6,0.00
2013-4-27,95.5,69.8,49.5,56.7,48.9,38.0,94,57,14,30.14,29.92,3,1,4,0.00
2013-4-28,88.2,65.4,46.8,57.9,51.6,45.7,99,68,30,30.00,29.79,3,1,4,0.00
2013-4-29,84.2,63.2,51.1,58.3,53.2,49.0,99,75,38,29.89,29.73,3,0,5,0.00
2013-4-30,65.3,57.7,49.8,55.6,52.8,48.4,98,85,66,29.90,29.80,2,0,4,0.00